TimeEST,TemperatureF,Dew PointF,Humidity,Sea Level PressureIn,VisibilityMPH,Wind Direction,Wind SpeedMPH,Gust SpeedMPH,PrecipitationIn,Events,Conditions,WindDirDegrees,DateUTC
12:15 AM,64.4,64.4,100,29.99,5.0,Calm,Calm,-,N/A,,Overcast,0,2012-12-10 05:15:00
12:35 AM,62.6,62.6,100,29.98,1.2,Calm,Calm,-,N/A,,Overcast,0,2012-12-10 05:35:00
12:55 AM,64.4,64.4,100,29.97,5.0,Calm,Calm,-,N/A,,Overcast,0,2012-12-10 05:55:00
1:15 AM,62.6,62.6,100,29.96,1.2,Calm,Calm,-,N/A,,Mostly Cloudy,0,2012-12-10 06:15:00
1:35 AM,62.6,62.6,100,29.95,4.0,Calm,Calm,-,N/A,,Mostly Cloudy,0,2012-12-10 06:35:00
1:55 AM,62.6,62.6,100,29.95,0.2,Calm,Calm,-,N/A,Fog,Fog,0,2012-12-10 06:55:00
2:15 AM,60.8,60.8,100,29.95,0.5,Calm,Calm,-,N/A,Fog,Fog,0,2012-12-10 07:15:00
2:35 AM,59.0,59.0,100,29.95,0.2,Calm,Calm,-,N/A,Fog,Fog,0,2012-12-10 07:35:00
2:55 AM,60.8,60.8,100,29.94,0.5,Calm,Calm,-,N/A,Fog,Fog,0,2012-12-10 07:55:00
3:15 AM,60.8,60.8,100,29.94,0.8,Calm,Calm,-,N/A,,Overcast,0,2012-12-10 08:15:00
3:55 AM,62.6,62.6,100,29.93,0.2,Calm,Calm,-,N/A,Fog,Fog,0,2012-12-10 08:55:00
4:15 AM,62.6,62.6,100,29.93,0.2,Calm,Calm,-,N/A,Fog,Fog,0,2012-12-10 09:15:00
4:35 AM,62.6,62.6,100,29.93,0.2,Calm,Calm,-,N/A,Fog,Fog,0,2012-12-10 09:35:00
4:55 AM,62.6,62.6,100,29.92,0.2,Calm,Calm,-,N/A,Fog,Fog,0,2012-12-10 09:55:00
5:15 AM,62.6,62.6,100,29.93,0.2,WSW,4.6,-,N/A,Fog,Fog,240,2012-12-10 10:15:00
5:35 AM,62.6,62.6,100,29.93,1.8,WSW,3.5,-,N/A,,Overcast,240,2012-12-10 10:35:00
5:55 AM,62.6,62.6,100,29.92,5.0,SW,4.6,-,N/A,,Scattered Clouds,230,2012-12-10 10:55:00
6:15 AM,60.8,60.8,100,29.93,4.0,SW,5.8,-,N/A,,Scattered Clouds,230,2012-12-10 11:15:00
6:35 AM,60.8,60.8,100,29.93,10.0,WSW,4.6,-,N/A,,Scattered Clouds,240,2012-12-10 11:35:00
6:55 AM,62.6,62.6,100,29.93,10.0,WSW,4.6,-,N/A,,Scattered Clouds,250,2012-12-10 11:55:00
7:15 AM,62.6,62.6,100,29.93,10.0,WSW,5.8,-,N/A,,Mostly Cloudy,240,2012-12-10 12:15:00
7:35 AM,62.6,62.6,100,29.93,2.5,WSW,6.9,-,N/A,,Overcast,240,2012-12-10 12:35:00
7:55 AM,62.6,62.6,100,29.93,1.5,SW,8.1,-,N/A,,Overcast,230,2012-12-10 12:55:00
8:15 AM,62.6,62.6,100,29.93,1.8,SW,6.9,-,N/A,,Overcast,230,2012-12-10 13:15:00
8:35 AM,62.6,62.6,100,29.93,2.0,WSW,8.1,-,N/A,,Overcast,240,2012-12-10 13:35:00
8:55 AM,62.6,62.6,100,29.93,2.5,SW,6.9,-,N/A,,Overcast,230,2012-12-10 13:55:00
9:15 AM,64.4,64.4,100,29.93,4.0,SW,9.2,-,N/A,,Overcast,230,2012-12-10 14:15:00
9:35 AM,64.4,64.4,100,29.94,5.0,WSW,8.1,-,N/A,,Overcast,240,2012-12-10 14:35:00
9:55 AM,64.4,64.4,100,29.94,10.0,SW,6.9,-,N/A,,Overcast,230,2012-12-10 14:55:00
10:15 AM,66.2,66.2,100,29.93,10.0,SW,12.7,-,N/A,,Overcast,230,2012-12-10 15:15:00
10:35 AM,68.0,68.0,100,29.93,10.0,SW,10.4,-,N/A,,Mostly Cloudy,230,2012-12-10 15:35:00
10:55 AM,69.8,66.2,88,29.92,10.0,WSW,12.7,-,N/A,,Scattered Clouds,240,2012-12-10 15:55:00
11:15 AM,69.8,64.4,83,29.91,10.0,SW,11.5,-,N/A,,Scattered Clouds,230,2012-12-10 16:15:00
11:35 AM,71.6,62.6,73,29.90,10.0,SW,11.5,17.3,N/A,,Scattered Clouds,220,2012-12-10 16:35:00
11:55 AM,71.6,62.6,73,29.89,10.0,WSW,12.7,20.7,N/A,,Mostly Cloudy,240,2012-12-10 16:55:00
12:15 PM,71.6,62.6,73,29.88,10.0,SW,16.1,25.3,N/A,,Mostly Cloudy,220,2012-12-10 17:15:00
12:35 PM,71.6,62.6,73,29.88,10.0,SW,13.8,-,N/A,,Scattered Clouds,220,2012-12-10 17:35:00
1:15 PM,71.6,62.6,73,29.85,10.0,SW,10.4,16.1,N/A,,Mostly Cloudy,220,2012-12-10 18:15:00
1:35 PM,73.4,60.8,65,29.85,10.0,SW,17.3,24.2,N/A,,Scattered Clouds,220,2012-12-10 18:35:00
1:55 PM,71.6,62.6,73,29.84,10.0,SSW,9.2,17.3,N/A,,Scattered Clouds,200,2012-12-10 18:55:00
2:15 PM,71.6,62.6,73,29.84,10.0,SSW,12.7,19.6,N/A,,Clear,200,2012-12-10 19:15:00
2:35 PM,71.6,60.8,69,29.84,10.0,SSW,11.5,17.3,N/A,,Clear,200,2012-12-10 19:35:00
2:55 PM,71.6,59.0,64,29.84,10.0,SSW,11.5,-,N/A,,Clear,210,2012-12-10 19:55:00
3:15 PM,69.8,62.6,78,29.84,10.0,SSW,9.2,-,N/A,,Clear,200,2012-12-10 20:15:00
3:35 PM,69.8,62.6,78,29.84,10.0,South,6.9,-,N/A,,Clear,190,2012-12-10 20:35:00
3:55 PM,68.0,60.8,78,29.83,10.0,South,8.1,-,N/A,,Clear,180,2012-12-10 20:55:00
4:15 PM,68.0,60.8,78,29.83,10.0,South,4.6,-,N/A,,Clear,180,2012-12-10 21:15:00
4:35 PM,66.2,60.8,83,29.83,10.0,South,6.9,-,N/A,,Clear,170,2012-12-10 21:35:00
4:55 PM,64.4,60.8,88,29.83,10.0,SSW,5.8,-,N/A,,Clear,200,2012-12-10 21:55:00
5:15 PM,62.6,60.8,94,29.83,10.0,South,4.6,-,N/A,,Clear,180,2012-12-10 22:15:00
5:35 PM,62.6,62.6,100,29.83,10.0,South,6.9,-,N/A,,Clear,180,2012-12-10 22:35:00
5:55 PM,62.6,62.6,100,29.82,10.0,South,6.9,-,N/A,,Clear,190,2012-12-10 22:55:00
6:15 PM,60.8,60.8,100,29.83,10.0,SSW,5.8,-,N/A,,Clear,200,2012-12-10 23:15:00
6:35 PM,60.8,60.8,100,29.83,10.0,SSW,8.1,-,N/A,,Clear,200,2012-12-10 23:35:00
6:55 PM,60.8,60.8,100,29.83,10.0,SSW,8.1,-,N/A,,Clear,200,2012-12-10 23:55:00
7:15 PM,60.8,60.8,100,29.82,10.0,South,6.9,-,N/A,,Clear,190,2012-12-11 00:15:00
7:35 PM,60.8,60.8,100,29.81,10.0,SW,4.6,-,N/A,,Clear,220,2012-12-11 00:35:00
7:55 PM,60.8,60.8,100,29.82,10.0,SW,3.5,-,N/A,,Clear,230,2012-12-11 00:55:00
8:15 PM,60.8,60.8,100,29.82,10.0,SSW,3.5,-,N/A,,Clear,210,2012-12-11 01:15:00
8:35 PM,59.0,59.0,100,29.82,10.0,SSW,4.6,-,N/A,,Clear,200,2012-12-11 01:35:00
8:55 PM,60.8,60.8,100,29.82,10.0,SSW,5.8,-,N/A,,Clear,210,2012-12-11 01:55:00
9:15 PM,62.6,62.6,100,29.82,10.0,SSW,5.8,-,N/A,,Clear,200,2012-12-11 02:15:00
9:55 PM,64.4,64.4,100,29.83,10.0,SSW,9.2,-,N/A,,Clear,210,2012-12-11 02:55:00
10:15 PM,64.4,64.4,100,29.82,10.0,SSW,8.1,-,N/A,,Clear,200,2012-12-11 03:15:00
10:35 PM,64.4,64.4,100,29.83,10.0,SSW,6.9,-,N/A,,Clear,200,2012-12-11 03:35:00
10:55 PM,64.4,64.4,100,29.81,10.0,SSW,5.8,-,N/A,,Clear,200,2012-12-11 03:55:00
11:15 PM,64.4,64.4,100,29.80,10.0,South,5.8,-,N/A,,Clear,190,2012-12-11 04:15:00
11:35 PM,66.2,66.2,100,29.81,10.0,SSW,11.5,-,N/A,,Clear,210,2012-12-11 04:35:00
11:55 PM,68.0,68.0,100,29.81,10.0,SSW,11.5,16.1,N/A,,Mostly Cloudy,210,2012-12-11 04:55:00